OBJECT H, 42832

Orbit data source: Space-Track

You're viewing an Uncataloged Satellite

Recently launched and/or uncataloged satellites may have evolving metadata. Metadata may include but not limited to: Owner, Maufacturer, Bus, Motor, and Mission.

OBJECT H, 42832 is a satellite in SSO that was launched on Fri, 14 Jul 2017 UTC via a SOYUZ-2-1A launch vehicle from the Tyuratam Missile And Space Complex (TTMTR). Unknown objects in Earth's orbit typically refer to objects detected orbiting the Earth but have not yet been identified or cataloged. These objects could be anything from previously untracked satellites, spent rocket stages, debris from satellite collisions, or even natural meteoroids temporarily captured by Earth's gravity.

Loading next visibility...
Identifier
42832, 2017-042H
Orbit
SSO
Country
Flag of TBDTBD
Related business
None
Manufacturer
Unknown
Mission
Non-operational Amateur Technology
Bus & Motor
Unknown
Mass
Unknown
Launch date (UTC)
2017-07-14 (9 years ago)
Launch vehicle
SOYUZ-2-1A
Launch site
Tyuratam Missile And Space Complex (TTMTR)
Object type
Unknown
Shape & HBR
Box, 0.1 m
Radar Cross Section
0.015 m², Small (<0.1 m²)

Expand to show TLE details & history
Last TLE update: 16 hours ago

TLE from 16 hours ago
0 OBJECT H
1 42832U 17042H   26023.42840819  .00007157  00000-0  48603-3 0  9996
2 42832  97.3972 189.3088 0009216 247.2701 112.7554 15.06641800465131
Epoch: 2026-01-23T10:16Z
TLE epoch observation values (Epoch: 2026-01-23T10:16:54.467Z)
Latitude
0.00005°
Longitude
-87.68551°
Altitude
552.017 km
Speed
7.584 km/s
True Right ascension
12h 37m 14s
True Declination
0° 00' 00"
Sunlit
Object was in full shadow at epoch
Visualization orbit readout
Latitude
Unknown
Longitude
Unknown
Altitude
Unknown
Speed
Unknown
Apparent Right ascension
Unknown
Apparent Declination
Unknown
Sunlit
N/A
Visualization observer readout
Local Sidereal Time
03:01:47
Azimuth
Unknown
Elevation
Unknown
Doppler factor
Unknown
Orbital elements
Apogee altitude
549.833 km
Perigee altitude
537.075 km
Semi-major axis
6,921.591 km
Eccentricity
0.00092
Inclination
97.3972°
RAAN
189.3088°
Arg. of periapsis
247.2701°
True anomaly
112.85274°
Mean anomaly
112.7554°
Eccentric anomaly
112.80408°
Mean motion
3.76907 °/min
Orbital period
95.51 mins
BSTAR
0.00048603
Loading maneuver chart data...
Computing Atmospheric mass density...

Documentation

Showing up to 5 results
|